Powrót do katalogu

HEBEI LINXI 1

AktywnyNaukaSSO
NORAD 59920·PAYLOAD·🇨🇳 China
Ta nazwa satelity nie została jeszcze potwierdzona przez oficjalne źródła.

Wystrzelony May 30, 2024 z Jiuquan Satellite Launch Center

Loading…

Następne Przeloty (najbliższe 24 godziny)

TLE

ŚwieżeSource: Space-Track

Epoka: Sep 14, 2026, 15:23 UTC

1 59920U 24105D   26257.64109098  .00004126  00000-0  17617-3 0  9994
2 59920  97.5806 277.4467 0009646 265.7598  94.2536 15.23433815126874

Śledź HEBEI LINXI 1 w czasie rzeczywistym z AllMySat

Download on the App Store